Weather History for Aurora, OR

Change the Weather History Date:

Thursday, January 24, 2013

  Actual Average Record
Temperature  
Mean Temperature 36 °F -  
Max Temperature 39 °F - 55 °F (2003)
Min Temperature 33 °F - 21 °F (2008)
Degree Days  
Heating Degree Days 29    
Month to date heating degree days 723  
Since 1 July heating degree days 2382  
Cooling Degree Days 0    
Month to date cooling degree days 0  
Year to date cooling degree days 0  
Moisture  
Dew Point 36 °F    
Average Humidity 96    
Maximum Humidity 100    
Minimum Humidity 92    
Precipitation  
Precipitation 0.26 in - 1.19 in (1959)
Month to date precipitation 1.01  
Year to date precipitation 1.01  
Sea Level Pressure  
Sea Level Pressure 30.19 in    
Wind  
Wind Speed 2 mph (NNE)    
Max Wind Speed 7 mph    
Max Gust Speed 9 mph    
Visibility 2 miles    
Events Fog , Rain    
T = Trace of Precipitation, MM = Missing Value Source: NWS Daily Summary

Daily Weather History Graph

Daily Weather History Graph

Search for Another Location

Airport:

Trip Planner

Search our weather history database for the weather conditions in past years. The results will help you decide how hot, cold, wet, or windy it might be!

Date:

Astronomy

Jan. 24, 2013 Rise Set
Actual Time 7:39 AM PST 5:07 PM PST
Civil Twilight 7:07 AM PST 5:39 PM PST
Nautical Twilight 6:31 AM PST 6:15 PM PST
Astronomical Twilight 5:56 AM PST 6:50 PM PST
Moon 3:13 PM PST (1/24) 5:42 AM PST (1/24)
Length of Visible Light 10h 32m
Length of Day
9h 28m
Waxing Gibbous, 95% of the Moon is Illuminated
Jan 24
Waxing Gibbous
Jan 26
Full
Feb 3
Last Quarter
Feb 9
New
Feb 17
First Quarter

Hourly Weather History & Observations

Time (PST) Temp. Windchill Dew Point Humidity Pressure Visibility Wind Dir Wind Speed Gust Speed Precip Events Conditions
12:06 AM 33.8 °F - 33.8 °F 100% 30.23 in 2.5 mi Calm Calm - N/A   Overcast
12:17 AM 33.8 °F - 33.8 °F 100% 30.23 in 3.0 mi Calm Calm - N/A   Overcast
12:46 AM 33.8 °F - 33.8 °F 100% 30.23 in 1.8 mi Calm Calm - N/A   Overcast
12:53 AM 34.0 °F - 34.0 °F 100% 30.24 in 0.8 mi Calm Calm - N/A   Overcast
1:20 AM 33.8 °F 30.8 °F 33.8 °F 100% 30.24 in 0.2 mi North 3.5 mph - N/A Fog Fog
1:44 AM 33.8 °F 30.8 °F 33.8 °F 100% 30.25 in 0.5 mi North 3.5 mph - N/A Fog Fog
1:53 AM 34.0 °F 29.8 °F 34.0 °F 100% 30.25 in 0.5 mi North 4.6 mph - N/A Fog Fog
2:23 AM 33.8 °F 29.6 °F 33.8 °F 100% 30.25 in 1.2 mi NNE 4.6 mph - N/A   Overcast
2:44 AM 33.8 °F 30.8 °F 33.8 °F 100% 30.25 in 2.0 mi North 3.5 mph - N/A   Overcast
2:53 AM 33.1 °F 30.0 °F 33.1 °F 100% 30.25 in 2.5 mi North 3.5 mph - N/A   Overcast
3:53 AM 33.1 °F 30.0 °F 33.1 °F 100% 30.25 in 2.5 mi North 3.5 mph - N/A   Overcast
4:53 AM 34.0 °F - 34.0 °F 100% 30.23 in 2.5 mi Calm Calm - N/A   Overcast
5:50 AM 33.8 °F 28.6 °F 33.8 °F 100% 30.22 in 3.0 mi North 5.8 mph - N/A   Overcast
5:53 AM 34.0 °F 28.8 °F 34.0 °F 100% 30.23 in 3.0 mi NNW 5.8 mph - N/A   Overcast
6:28 AM 33.8 °F 29.6 °F 33.8 °F 100% 30.23 in 2.0 mi NE 4.6 mph - N/A   Overcast
6:37 AM 33.8 °F 29.6 °F 33.8 °F 100% 30.23 in 1.2 mi NNE 4.6 mph - N/A   Overcast
6:53 AM 34.0 °F 31.0 °F 34.0 °F 100% 30.22 in 1.0 mi NNE 3.5 mph - N/A   Mist
7:00 AM 33.8 °F 29.6 °F 33.8 °F 100% 30.21 in 0.8 mi NE 4.6 mph - N/A   Mist
7:53 AM 34.0 °F 31.0 °F 34.0 °F 100% 30.21 in 0.5 mi North 3.5 mph - N/A Fog Fog
8:00 AM 33.8 °F 29.6 °F 33.8 °F 100% 30.21 in 0.2 mi North 4.6 mph - N/A Fog Fog
8:53 AM 35.1 °F 32.2 °F 35.1 °F 100% 30.21 in 0.2 mi NNW 3.5 mph - N/A Fog Fog
9:53 AM 35.1 °F 32.2 °F 35.1 °F 100% 30.21 in 0.2 mi East 3.5 mph - N/A Fog Fog
10:43 AM 35.6 °F - 35.6 °F 100% 30.21 in 0.5 mi Calm Calm - N/A Fog Fog
10:53 AM 35.1 °F - 35.1 °F 100% 30.21 in 0.2 mi Calm Calm - N/A Fog Fog
11:05 AM 35.6 °F - 35.6 °F 100% 30.20 in 0.8 mi Calm Calm - N/A   Mist
11:17 AM 35.6 °F - 35.6 °F 100% 30.20 in 1.0 mi Calm Calm - N/A   Overcast
11:29 AM 35.6 °F - 35.6 °F 100% 30.20 in 0.8 mi Calm Calm - N/A   Overcast
11:53 AM 36.0 °F - 35.1 °F 97% 30.20 in 0.5 mi Calm Calm - N/A Fog Fog
12:53 PM 36.0 °F 33.3 °F 36.0 °F 100% 30.17 in 0.2 mi South 3.5 mph - N/A Fog Fog
1:03 PM 35.6 °F 32.8 °F 35.6 °F 100% 30.16 in 0.5 mi Variable 3.5 mph - N/A Fog Fog
1:16 PM 35.6 °F - 35.6 °F 100% 30.15 in 1.2 mi Calm Calm - N/A   Overcast
1:32 PM 35.6 °F - 35.6 °F 100% 30.15 in 2.5 mi Calm Calm - N/A   Overcast
1:53 PM 36.0 °F - 36.0 °F 100% 30.15 in 2.5 mi Calm Calm - N/A   Overcast
2:13 PM 37.4 °F - 35.6 °F 93% 30.13 in 4.0 mi Calm Calm - N/A   Overcast
2:53 PM 37.0 °F - 36.0 °F 96% 30.15 in 4.0 mi Calm Calm - N/A   Overcast
3:53 PM 37.0 °F - 37.0 °F 100% 30.15 in 4.0 mi Calm Calm - N/A   Overcast
4:30 PM 37.4 °F - 37.4 °F 100% 30.15 in 4.0 mi Calm Calm - N/A   Overcast
4:53 PM 37.9 °F - 37.0 °F 97% 30.16 in 5.0 mi Calm Calm - N/A   Overcast
5:39 PM 37.4 °F - 37.4 °F 100% 30.16 in 4.0 mi Calm Calm - 0.02 in Rain Light Rain
5:53 PM 37.9 °F - 37.0 °F 97% 30.17 in 4.0 mi Calm Calm - 0.03 in Rain Rain
6:53 PM 37.0 °F 32.4 °F 37.0 °F 100% 30.15 in 3.0 mi SSE 5.8 mph - 0.09 in Rain Rain
7:09 PM 37.4 °F - 37.4 °F 100% 30.15 in 4.0 mi Calm Calm - 0.01 in Rain Light Rain
7:35 PM 37.4 °F - 37.4 °F 100% 30.15 in 4.0 mi Calm Calm - 0.02 in Rain Light Rain
7:53 PM 37.9 °F - 37.0 °F 97% 30.15 in 3.0 mi Calm Calm - 0.03 in Rain Light Rain
8:25 PM 37.4 °F - 37.4 °F 100% 30.15 in 3.0 mi Calm Calm - 0.00 in Rain Light Rain
8:39 PM 37.4 °F - 37.4 °F 100% 30.15 in 2.5 mi Calm Calm - 0.01 in Rain Light Rain
8:53 PM 37.9 °F - 37.9 °F 100% 30.16 in 2.0 mi Calm Calm - 0.02 in Rain Light Rain
9:04 PM 37.4 °F - 37.4 °F 100% 30.15 in 3.0 mi Calm Calm - 0.00 in Rain Light Rain
9:53 PM 37.9 °F - 37.9 °F 100% 30.16 in 2.5 mi Calm Calm - 0.01 in Rain Light Rain
10:07 PM 37.4 °F - 37.4 °F 100% 30.15 in 2.0 mi Calm Calm - 0.01 in Rain Light Rain
10:16 PM 37.4 °F - 37.4 °F 100% 30.15 in 1.5 mi Calm Calm - 0.02 in Rain Light Rain
10:24 PM 37.4 °F - 37.4 °F 100% 30.15 in 1.8 mi Calm Calm - 0.02 in Rain Light Rain
10:32 PM 37.4 °F - 37.4 °F 100% 30.16 in 2.0 mi Calm Calm - 0.03 in Rain Light Rain
10:53 PM 37.9 °F - 37.9 °F 100% 30.16 in 2.0 mi Calm Calm - 0.05 in Rain Rain
11:00 PM 39.2 °F - 37.4 °F 93% 30.15 in 1.8 mi Calm Calm - 0.01 in Rain Light Rain
11:07 PM 39.2 °F - 39.2 °F 100% 30.16 in 2.5 mi Calm Calm - 0.01 in Rain Light Rain
11:25 PM 39.2 °F - 37.4 °F 93% 30.16 in 3.0 mi Calm Calm - 0.02 in Rain Light Rain
11:36 PM 39.2 °F - 37.4 °F 93% 30.16 in 3.0 mi Calm Calm - 0.02 in Rain Light Rain
11:53 PM 39.0 °F - 37.9 °F 96% 30.16 in 2.5 mi Calm Calm - 0.03 in Rain Light Rain